QPF
0.08 0.10 0.10 0.09 0.09 0.07 0.08 0.12 0.11 0.09 0.06 0.04 0.04 0.05 0.04 0.03 0.03 0.03 0.02 0.01 0.00 0.00 0.01 0.01 0.02 0.02 0.02 0.03 0.03 0.04 0.03 0.02 0.01 0.01 0.01 0.02 0.01 0.01 0.01 0.01 0.01 0.01 0.00
0.07 0.09 0.09 0.09 0.07 0.07 0.07 0.08 0.06 0.08 0.08 0.07 0.05 0.03 0.03 0.03 0.03 0.03 0.02 0.02 0.01 0.00 0.00 0.01 0.01 0.02 0.03 0.02 0.03 0.03 0.03 0.02 0.02 0.01 0.01 0.02 0.01 0.01 0.01 0.01 0.01 0.01 0.01
0.06 0.08 0.09 0.08 0.06 0.06 0.07 0.06 0.07 0.10 0.11 0.09 0.06 0.03 0.02 0.03 0.03 0.02 0.03 0.03 0.02 0.01 0.01 0.01 0.01 0.01 0.02 0.03 0.03 0.02 0.02 0.02 0.02 0.02 0.02 0.02 0.01 0.01 0.01 0.01 0.01 0.01 0.01
0.04 0.08 0.08 0.08 0.07 0.06 0.08 0.08 0.06 0.09 0.10 0.09 0.09 0.06 0.04 0.04 0.05 0.04 0.04 0.05 0.04 0.03 0.02 0.01 0.01 0.00 0.00 0.01 0.03 0.02 0.01 0.01 0.02 0.02 0.01 0.01 0.01 0.01 0.01 0.01 0.01 0.01 0.01
0.05 0.06 0.08 0.08 0.07 0.08 0.08 0.07 0.09 0.11 0.11 0.10 0.07 0.08 0.04 0.04 0.05 0.05 0.06 0.07 0.06 0.05 0.05 0.02 0.01 0.01 0.01 0.01 0.02 0.03 0.03 0.03 0.02 0.01 0.01 0.01 0.02 0.01 0.01 0.00 0.00 0.00 0.00
0.06 0.07 0.06 0.06 0.06 0.10 0.11 0.11 0.15 0.12 0.10 0.08 0.06 0.09 0.07 0.04 0.04 0.03 0.05 0.09 0.07 0.04 0.05 0.06 0.05 0.03 0.00 0.01 0.02 0.04 0.04 0.05 0.03 0.02 0.01 0.01 0.01 0.01 0.00 0.01 0.01 0.00 0.00
0.06 0.07 0.06 0.14 0.10 0.11 0.11 0.10 0.13 0.13 0.09 0.07 0.11 0.12 0.08 0.05 0.04 0.03 0.02 0.04 0.03 0.02 0.03 0.05 0.07 0.07 0.04 0.01 0.01 0.02 0.03 0.03 0.04 0.03 0.03 0.02 0.01 0.01 0.01 0.01 0.01 0.01 0.01
0.05 0.05 0.07 0.10 0.12 0.14 0.13 0.14 0.14 0.16 0.13 0.10 0.13 0.16 0.15 0.14 0.11 0.04 0.04 0.03 0.02 0.02 0.02 0.02 0.05 0.07 0.06 0.07 0.04 0.01 0.02 0.02 0.03 0.04 0.04 0.03 0.03 0.02 0.02 0.01 0.01 0.02 0.02
0.06 0.07 0.07 0.07 0.11 0.10 0.12 0.13 0.13 0.15 0.15 0.16 0.15 0.17 0.16 0.18 0.16 0.09 0.08 0.04 0.03 0.05 0.04 0.03 0.03 0.04 0.07 0.08 0.07 0.03 0.01 0.01 0.03 0.04 0.04 0.03 0.03 0.02 0.02 0.02 0.02 0.02 0.02
0.07 0.08 0.08 0.09 0.09 0.10 0.15 0.10 0.12 0.15 0.18 0.17 0.17 0.13 0.12 0.15 0.17 0.15 0.12 0.07 0.06 0.05 0.05 0.05 0.04 0.04 0.05 0.05 0.05 0.03 0.02 0.01 0.02 0.03 0.04 0.04 0.03 0.02 0.01 0.01 0.02 0.02 0.02
0.08 0.06 0.08 0.10 0.11 0.11 0.14 0.12 0.17 0.15 0.15 0.16 0.16 0.17 0.17 0.16 0.12 0.15 0.16 0.15 0.13 0.09 0.05 0.05 0.05 0.05 0.04 0.05 0.06 0.03 0.02 0.02 0.01 0.01 0.02 0.02 0.02 0.01 0.01 0.02 0.03 0.03 0.04
0.08 0.07 0.08 0.10 0.09 0.10 0.12 0.12 0.13 0.13 0.14 0.14 0.14 0.13 0.14 0.13 0.13 0.16 0.15 0.15 0.14 0.11 0.07 0.05 0.05 0.04 0.04 0.04 0.04 0.02 0.02 0.02 0.01 0.01 0.01 0.01 0.01 0.02 0.02 0.04 0.05 0.05 0.05
0.08 0.08 0.09 0.10 0.10 0.09 0.09 0.12 0.13 0.12 0.13 0.14 0.13 0.11 0.11 0.09 0.10 0.12 0.14 0.14 0.15 0.11 0.07 0.06 0.05 0.04 0.02 0.04 0.04 0.03 0.03 0.05 0.03 0.02 0.02 0.02 0.01 0.02 0.02 0.03 0.05 0.05 0.05
0.09 0.08 0.08 0.08 0.08 0.08 0.08 0.15 0.13 0.12 0.12 0.11 0.10 0.13 0.12 0.09 0.09 0.10 0.12 0.15 0.15 0.12 0.10 0.06 0.04 0.05 0.05 0.05 0.07 0.08 0.05 0.07 0.05 0.04 0.03 0.02 0.02 0.01 0.01 0.02 0.03 0.03 0.03
0.08 0.07 0.06 0.06 0.07 0.07 0.09 0.13 0.13 0.12 0.14 0.13 0.12 0.14 0.13 0.09 0.07 0.07 0.09 0.14 0.16 0.15 0.14 0.10 0.07 0.07 0.09 0.09 0.09 0.06 0.06 0.06 0.06 0.05 0.04 0.03 0.02 0.01 0.01 0.01 0.02 0.02 0.02
0.04 0.04 0.04 0.04 0.05 0.07 0.08 0.10 0.10 0.12 0.14 0.13 0.13 0.14 0.13 0.10 0.08 0.08 0.10 0.13 0.15 0.16 0.16 0.11 0.09 0.08 0.08 0.07 0.09 0.07 0.08 0.09 0.08 0.06 0.04 0.03 0.02 0.02 0.02 0.01 0.02 0.02 0.02
0.04 0.04 0.06 0.07 0.07 0.09 0.12 0.13 0.10 0.11 0.11 0.12 0.12 0.14 0.14 0.13 0.11 0.08 0.09 0.10 0.12 0.15 0.14 0.09 0.07 0.07 0.09 0.09 0.09 0.10 0.11 0.12 0.10 0.09 0.07 0.05 0.04 0.03 0.03 0.03 0.03 0.02 0.02
0.05 0.05 0.07 0.08 0.08 0.09 0.11 0.10 0.09 0.12 0.13 0.13 0.13 0.14 0.12 0.12 0.14 0.11 0.10 0.09 0.11 0.13 0.14 0.12 0.09 0.09 0.09 0.09 0.10 0.10 0.09 0.09 0.10 0.12 0.10 0.07 0.05 0.05 0.04 0.04 0.03 0.03 0.03
0.06 0.06 0.08 0.08 0.08 0.10 0.11 0.11 0.13 0.17 0.17 0.13 0.13 0.12 0.12 0.13 0.13 0.12 0.11 0.12 0.12 0.11 0.15 0.15 0.11 0.10 0.09 0.10 0.12 0.11 0.12 0.12 0.12 0.13 0.11 0.08 0.07 0.06 0.05 0.05 0.03 0.03 0.03
0.05 0.05 0.06 0.08 0.13 0.18 0.17 0.13 0.11 0.11 0.11 0.11 0.13 0.14 0.14 0.13 0.14 0.14 0.13 0.14 0.15 0.16 0.17 0.16 0.14 0.11 0.12 0.14 0.14 0.13 0.13 0.13 0.12 0.10 0.11 0.08 0.07 0.07 0.05 0.04 0.04 0.04 0.04
0.04 0.05 0.06 0.09 0.11 0.14 0.12 0.10 0.09 0.10 0.10 0.10 0.12 0.13 0.14 0.13 0.12 0.12 0.10 0.12 0.13 0.14 0.16 0.17 0.16 0.13 0.12 0.14 0.15 0.15 0.14 0.13 0.13 0.10 0.09 0.08 0.07 0.06 0.05 0.05 0.05 0.05 0.05
0.06 0.06 0.06 0.06 0.06 0.05 0.05 0.04 0.05 0.07 0.10 0.11 0.12 0.11 0.11 0.11 0.10 0.09 0.08 0.07 0.08 0.10 0.12 0.14 0.14 0.13 0.13 0.15 0.16 0.16 0.15 0.14 0.12 0.09 0.09 0.07 0.07 0.06 0.05 0.05 0.06 0.06 0.05
0.07 0.06 0.04 0.04 0.03 0.03 0.03 0.02 0.03 0.05 0.07 0.09 0.09 0.10 0.09 0.07 0.07 0.07 0.07 0.06 0.06 0.06 0.07 0.09 0.10 0.09 0.11 0.13 0.14 0.16 0.15 0.13 0.13 0.11 0.09 0.07 0.06 0.05 0.05 0.04 0.04 0.04 0.04
0.05 0.05 0.04 0.03 0.02 0.03 0.03 0.02 0.02 0.03 0.03 0.04 0.05 0.06 0.08 0.08 0.07 0.07 0.07 0.06 0.05 0.05 0.05 0.06 0.07 0.08 0.10 0.13 0.15 0.17 0.18 0.18 0.17 0.13 0.10 0.08 0.05 0.04 0.03 0.03 0.03 0.03 0.03
0.03 0.03 0.03 0.02 0.02 0.02 0.02 0.02 0.01 0.02 0.03 0.03 0.04 0.03 0.04 0.05 0.07 0.08 0.07 0.07 0.07 0.06 0.06 0.06 0.06 0.06 0.07 0.08 0.09 0.10 0.10 0.08 0.08 0.07 0.08 0.06 0.05 0.05 0.04 0.03 0.03 0.04 0.04
0.03 0.03 0.02 0.02 0.02 0.03 0.03 0.02 0.02 0.02 0.03 0.03 0.04 0.03 0.04 0.05 0.06 0.06 0.06 0.07 0.07 0.06 0.06 0.05 0.04 0.05 0.04 0.04 0.04 0.03 0.05 0.06 0.06 0.06 0.07 0.05 0.04 0.04 0.04 0.04 0.05 0.05 0.05
MSLP
1016.48 1016.84 1017.18 1017.49 1017.76 1017.99 1018.18 1018.30 1018.35 1018.31 1018.21 1018.06 1017.90 1017.78 1017.75 1017.85 1018.10 1018.48 1018.97 1019.51 1020.03 1020.51 1020.89 1021.16 1021.34 1021.44 1021.51 1021.57 1021.63 1021.72 1021.82 1021.93 1022.05 1022.16 1022.28 1022.40 1022.54 1022.68 1022.83 1022.99 1023.12 1023.23 1023.31
1016.51 1016.90 1017.26 1017.57 1017.82 1018.01 1018.14 1018.21 1018.21 1018.16 1018.05 1017.92 1017.80 1017.72 1017.72 1017.82 1018.04 1018.37 1018.78 1019.24 1019.70 1020.14 1020.52 1020.84 1021.09 1021.28 1021.43 1021.56 1021.66 1021.76 1021.85 1021.92 1021.99 1022.07 1022.16 1022.27 1022.40 1022.56 1022.73 1022.90 1023.05 1023.16 1023.24
1016.47 1016.87 1017.23 1017.53 1017.76 1017.92 1018.02 1018.07 1018.06 1018.02 1017.95 1017.87 1017.80 1017.77 1017.78 1017.87 1018.03 1018.27 1018.58 1018.92 1019.29 1019.66 1020.02 1020.36 1020.67 1020.94 1021.18 1021.39 1021.56 1021.69 1021.78 1021.84 1021.89 1021.94 1022.00 1022.10 1022.23 1022.40 1022.58 1022.77 1022.94 1023.06 1023.15
1016.38 1016.76 1017.09 1017.38 1017.60 1017.75 1017.86 1017.91 1017.94 1017.94 1017.93 1017.92 1017.91 1017.92 1017.95 1018.01 1018.09 1018.22 1018.38 1018.58 1018.82 1019.10 1019.40 1019.73 1020.07 1020.41 1020.73 1021.02 1021.25 1021.43 1021.56 1021.63 1021.67 1021.71 1021.77 1021.86 1022.00 1022.18 1022.38 1022.58 1022.77 1022.91 1023.01
1016.27 1016.59 1016.90 1017.16 1017.37 1017.55 1017.68 1017.78 1017.86 1017.93 1018.00 1018.06 1018.11 1018.16 1018.19 1018.20 1018.20 1018.20 1018.22 1018.25 1018.34 1018.49 1018.70 1018.98 1019.32 1019.69 1020.07 1020.42 1020.72 1020.96 1021.13 1021.23 1021.29 1021.35 1021.42 1021.52 1021.67 1021.86 1022.08 1022.30 1022.50 1022.67 1022.79
1016.16 1016.42 1016.67 1016.92 1017.14 1017.33 1017.51 1017.67 1017.82 1017.97 1018.11 1018.24 1018.35 1018.42 1018.44 1018.41 1018.33 1018.21 1018.07 1017.95 1017.88 1017.88 1017.98 1018.18 1018.47 1018.83 1019.23 1019.62 1019.97 1020.26 1020.48 1020.63 1020.74 1020.83 1020.92 1021.05 1021.22 1021.42 1021.66 1021.89 1022.11 1022.30 1022.43
1016.07 1016.25 1016.46 1016.69 1016.92 1017.14 1017.37 1017.59 1017.80 1018.02 1018.22 1018.40 1018.54 1018.63 1018.64 1018.57 1018.42 1018.20 1017.94 1017.68 1017.47 1017.33 1017.30 1017.39 1017.61 1017.92 1018.30 1018.69 1019.07 1019.39 1019.66 1019.87 1020.02 1020.16 1020.30 1020.46 1020.65 1020.87 1021.11 1021.35 1021.57 1021.77 1021.93
1016.02 1016.13 1016.30 1016.50 1016.74 1017.00 1017.26 1017.52 1017.78 1018.03 1018.26 1018.47 1018.63 1018.71 1018.72 1018.63 1018.44 1018.16 1017.82 1017.46 1017.13 1016.88 1016.73 1016.71 1016.82 1017.05 1017.37 1017.73 1018.09 1018.44 1018.74 1018.99 1019.20 1019.39 1019.57 1019.76 1019.98 1020.21 1020.45 1020.68 1020.90 1021.10 1021.27
1016.00 1016.05 1016.18 1016.38 1016.62 1016.89 1017.17 1017.45 1017.72 1017.97 1018.19 1018.39 1018.54 1018.62 1018.62 1018.53 1018.33 1018.04 1017.68 1017.29 1016.90 1016.56 1016.32 1016.19 1016.19 1016.32 1016.55 1016.84 1017.16 1017.49 1017.80 1018.09 1018.34 1018.57 1018.80 1019.02 1019.25 1019.48 1019.71 1019.94 1020.14 1020.32 1020.49
1015.99 1016.01 1016.12 1016.30 1016.53 1016.80 1017.08 1017.34 1017.59 1017.80 1017.98 1018.14 1018.25 1018.32 1018.32 1018.25 1018.09 1017.85 1017.52 1017.15 1016.76 1016.39 1016.09 1015.87 1015.77 1015.79 1015.90 1016.10 1016.36 1016.64 1016.94 1017.23 1017.52 1017.78 1018.04 1018.29 1018.53 1018.75 1018.97 1019.16 1019.34 1019.50 1019.66
1015.96 1015.97 1016.06 1016.24 1016.46 1016.72 1016.96 1017.19 1017.37 1017.52 1017.63 1017.72 1017.79 1017.84 1017.86 1017.83 1017.74 1017.58 1017.34 1017.04 1016.70 1016.36 1016.03 1015.76 1015.57 1015.47 1015.47 1015.56 1015.73 1015.95 1016.21 1016.49 1016.78 1017.07 1017.35 1017.61 1017.85 1018.07 1018.26 1018.42 1018.56 1018.70 1018.83
1015.88 1015.89 1015.99 1016.16 1016.37 1016.60 1016.80 1016.97 1017.08 1017.14 1017.17 1017.19 1017.21 1017.24 1017.27 1017.30 1017.30 1017.25 1017.14 1016.95 1016.71 1016.41 1016.10 1015.80 1015.55 1015.35 1015.25 1015.23 1015.29 1015.43 1015.64 1015.89 1016.17 1016.46 1016.74 1017.01 1017.25 1017.45 1017.62 1017.75 1017.86 1017.96 1018.07
1015.71 1015.74 1015.85 1016.02 1016.22 1016.42 1016.58 1016.68 1016.72 1016.70 1016.65 1016.59 1016.57 1016.58 1016.64 1016.73 1016.82 1016.90 1016.91 1016.86 1016.73 1016.52 1016.25 1015.95 1015.65 1015.38 1015.18 1015.05 1015.02 1015.07 1015.21 1015.41 1015.67 1015.95 1016.23 1016.49 1016.73 1016.92 1017.07 1017.17 1017.25 1017.32 1017.40
1015.46 1015.51 1015.62 1015.79 1015.99 1016.16 1016.29 1016.34 1016.31 1016.23 1016.11 1016.00 1015.94 1015.94 1016.02 1016.17 1016.35 1016.54 1016.68 1016.76 1016.74 1016.61 1016.40 1016.12 1015.80 1015.48 1015.20 1014.99 1014.87 1014.84 1014.90 1015.05 1015.27 1015.52 1015.79 1016.05 1016.27 1016.45 1016.59 1016.67 1016.73 1016.77 1016.82
1015.12 1015.18 1015.31 1015.48 1015.67 1015.83 1015.93 1015.96 1015.89 1015.77 1015.61 1015.47 1015.39 1015.39 1015.48 1015.67 1015.92 1016.19 1016.44 1016.62 1016.70 1016.66 1016.51 1016.26 1015.95 1015.60 1015.27 1015.00 1014.80 1014.69 1014.69 1014.78 1014.95 1015.17 1015.41 1015.65 1015.86 1016.03 1016.15 1016.22 1016.26 1016.28 1016.31
1014.71 1014.78 1014.92 1015.09 1015.28 1015.44 1015.54 1015.55 1015.48 1015.34 1015.18 1015.03 1014.93 1014.94 1015.05 1015.26 1015.55 1015.88 1016.19 1016.44 1016.60 1016.64 1016.54 1016.34 1016.04 1015.70 1015.35 1015.03 1014.78 1014.62 1014.56 1014.59 1014.70 1014.87 1015.07 1015.28 1015.47 1015.62 1015.73 1015.79 1015.82 1015.83 1015.84
1014.28 1014.35 1014.48 1014.66 1014.85 1015.01 1015.12 1015.15 1015.09 1014.97 1014.82 1014.68 1014.59 1014.60 1014.71 1014.93 1015.24 1015.59 1015.93 1016.23 1016.43 1016.52 1016.48 1016.32 1016.07 1015.76 1015.42 1015.09 1014.82 1014.62 1014.50 1014.47 1014.52 1014.64 1014.79 1014.95 1015.10 1015.22 1015.31 1015.36 1015.37 1015.37 1015.36
1013.85 1013.92 1014.05 1014.22 1014.41 1014.58 1014.70 1014.75 1014.73 1014.64 1014.52 1014.41 1014.35 1014.36 1014.47 1014.69 1014.98 1015.32 1015.66 1015.97 1016.20 1016.33 1016.34 1016.24 1016.05 1015.78 1015.48 1015.17 1014.90 1014.68 1014.52 1014.44 1014.43 1014.47 1014.55 1014.65 1014.74 1014.82 1014.88 1014.90 1014.90 1014.88 1014.87
1013.46 1013.52 1013.64 1013.81 1013.99 1014.17 1014.31 1014.38 1014.39 1014.35 1014.27 1014.20 1014.16 1014.19 1014.30 1014.49 1014.76 1015.07 1015.40 1015.70 1015.94 1016.10 1016.16 1016.12 1015.99 1015.79 1015.55 1015.29 1015.03 1014.80 1014.62 1014.49 1014.41 1014.37 1014.37 1014.39 1014.41 1014.44 1014.44 1014.44 1014.41 1014.38 1014.35
1013.14 1013.19 1013.30 1013.45 1013.62 1013.79 1013.94 1014.04 1014.08 1014.08 1014.05 1014.02 1014.01 1014.06 1014.17 1014.35 1014.58 1014.86 1015.16 1015.44 1015.67 1015.85 1015.95 1015.97 1015.92 1015.80 1015.62 1015.42 1015.20 1014.98 1014.78 1014.60 1014.45 1014.34 1014.25 1014.18 1014.13 1014.08 1014.03 1013.98 1013.93 1013.88 1013.85
1012.88 1012.93 1013.02 1013.16 1013.31 1013.47 1013.61 1013.72 1013.79 1013.83 1013.84 1013.86 1013.89 1013.96 1014.08 1014.25 1014.46 1014.70 1014.96 1015.21 1015.44 1015.63 1015.76 1015.83 1015.85 1015.80 1015.70 1015.56 1015.38 1015.18 1014.97 1014.75 1014.54 1014.35 1014.18 1014.02 1013.89 1013.77 1013.67 1013.57 1013.49 1013.43 1013.38
1012.67 1012.73 1012.82 1012.93 1013.06 1013.20 1013.33 1013.44 1013.53 1013.60 1013.66 1013.73 1013.81 1013.91 1014.04 1014.21 1014.40 1014.61 1014.84 1015.06 1015.26 1015.45 1015.60 1015.71 1015.78 1015.80 1015.76 1015.68 1015.54 1015.36 1015.14 1014.90 1014.64 1014.39 1014.14 1013.90 1013.70 1013.51 1013.36 1013.23 1013.12 1013.04 1012.99
1012.51 1012.59 1012.67 1012.77 1012.87 1012.99 1013.10 1013.21 1013.31 1013.42 1013.52 1013.64 1013.77 1013.91 1014.07 1014.25 1014.43 1014.62 1014.81 1014.99 1015.17 1015.34 1015.49 1015.62 1015.72 1015.78 1015.79 1015.75 1015.65 1015.49 1015.28 1015.02 1014.73 1014.42 1014.11 1013.82 1013.56 1013.33 1013.13 1012.97 1012.85 1012.76 1012.71
1012.40 1012.50 1012.58 1012.67 1012.75 1012.84 1012.93 1013.04 1013.16 1013.29 1013.45 1013.62 1013.81 1014.00 1014.20 1014.39 1014.57 1014.74 1014.89 1015.03 1015.17 1015.30 1015.43 1015.56 1015.66 1015.74 1015.78 1015.77 1015.70 1015.55 1015.35 1015.08 1014.77 1014.43 1014.09 1013.77 1013.47 1013.21 1012.99 1012.81 1012.68 1012.59 1012.54
1012.33 1012.46 1012.55 1012.63 1012.70 1012.77 1012.85 1012.96 1013.09 1013.26 1013.46 1013.69 1013.93 1014.18 1014.41 1014.62 1014.80 1014.95 1015.07 1015.17 1015.26 1015.35 1015.44 1015.53 1015.62 1015.70 1015.75 1015.75 1015.69 1015.56 1015.36 1015.10 1014.78 1014.44 1014.09 1013.74 1013.43 1013.16 1012.93 1012.75 1012.61 1012.52 1012.47
1012.32 1012.48 1012.59 1012.67 1012.73 1012.79 1012.87 1012.98 1013.13 1013.32 1013.57 1013.84 1014.14 1014.43 1014.70 1014.93 1015.11 1015.24 1015.33 1015.38 1015.42 1015.45 1015.49 1015.54 1015.60 1015.66 1015.70 1015.70 1015.65 1015.54 1015.35 1015.10 1014.80 1014.46 1014.11 1013.77 1013.45 1013.17 1012.94 1012.76 1012.62 1012.52 1012.47
Thickness
5760 5759 5758 5757 5755 5754 5753 5753 5752 5753 5753 5754 5754 5755 5756 5756 5755 5752 5749 5747 5745 5743 5741 5740 5738 5736 5735 5733 5732 5731 5730 5728 5727 5726 5725 5723 5722 5721 5719 5718 5716 5715 5714
5761 5760 5758 5757 5757 5756 5756 5755 5755 5754 5755 5755 5755 5756 5757 5756 5755 5753 5751 5748 5746 5745 5743 5741 5739 5737 5736 5734 5733 5732 5730 5729 5728 5726 5725 5724 5722 5721 5719 5718 5716 5715 5713
5761 5760 5759 5758 5758 5758 5757 5756 5756 5756 5755 5755 5756 5756 5757 5757 5756 5755 5752 5750 5748 5746 5744 5742 5741 5739 5737 5736 5734 5733 5731 5730 5728 5727 5725 5724 5722 5721 5719 5718 5716 5714 5713
5761 5760 5760 5759 5759 5759 5758 5757 5757 5756 5755 5756 5756 5757 5757 5757 5757 5756 5754 5752 5751 5748 5746 5744 5742 5741 5739 5737 5736 5734 5733 5731 5729 5728 5726 5724 5723 5721 5719 5718 5716 5714 5712
5762 5760 5760 5760 5759 5759 5759 5759 5758 5756 5754 5755 5756 5757 5757 5757 5757 5756 5755 5754 5753 5751 5749 5746 5744 5742 5741 5739 5737 5735 5734 5732 5730 5728 5727 5725 5723 5721 5719 5718 5716 5714 5712
5763 5761 5761 5761 5760 5759 5758 5758 5756 5756 5755 5755 5756 5756 5757 5758 5758 5757 5756 5756 5755 5754 5752 5750 5746 5743 5742 5740 5739 5737 5735 5733 5731 5729 5727 5725 5723 5721 5720 5718 5716 5714 5712
5763 5762 5761 5760 5760 5758 5757 5757 5756 5754 5753 5755 5751 5750 5754 5758 5758 5758 5758 5757 5757 5756 5755 5752 5749 5747 5744 5742 5740 5738 5736 5734 5732 5730 5728 5726 5724 5722 5720 5718 5716 5714 5712
5763 5763 5760 5759 5759 5757 5756 5756 5755 5752 5752 5754 5749 5744 5741 5746 5753 5759 5758 5757 5757 5757 5756 5754 5752 5749 5747 5745 5742 5740 5737 5735 5733 5731 5728 5726 5724 5722 5720 5718 5716 5713 5711
5764 5763 5761 5760 5759 5757 5755 5754 5754 5751 5748 5751 5752 5745 5738 5736 5743 5752 5756 5757 5757 5756 5756 5755 5754 5751 5749 5747 5744 5742 5739 5736 5734 5731 5729 5727 5724 5722 5720 5717 5715 5713 5711
5766 5764 5762 5760 5758 5757 5756 5754 5754 5753 5749 5747 5749 5751 5749 5747 5739 5739 5747 5754 5755 5755 5755 5755 5755 5753 5750 5748 5746 5743 5740 5737 5734 5732 5729 5726 5724 5721 5719 5717 5714 5712 5710
5766 5765 5764 5761 5759 5757 5756 5755 5754 5753 5751 5749 5747 5747 5747 5747 5746 5739 5737 5744 5749 5752 5753 5754 5754 5752 5750 5748 5746 5743 5740 5737 5734 5731 5729 5726 5723 5720 5718 5716 5714 5711 5709
5767 5766 5764 5762 5759 5757 5756 5755 5754 5753 5752 5751 5749 5748 5746 5744 5743 5742 5738 5739 5741 5746 5751 5753 5752 5751 5750 5748 5746 5743 5740 5737 5734 5731 5728 5725 5722 5719 5717 5715 5712 5710 5708
5766 5765 5764 5761 5759 5758 5756 5755 5753 5752 5752 5750 5749 5749 5749 5749 5748 5746 5741 5738 5739 5743 5747 5749 5751 5750 5748 5746 5744 5742 5739 5736 5733 5730 5727 5724 5721 5718 5715 5713 5710 5708 5706
5768 5767 5765 5762 5760 5758 5757 5756 5754 5752 5752 5751 5751 5750 5749 5749 5750 5748 5743 5738 5734 5736 5740 5743 5747 5747 5745 5743 5741 5738 5735 5733 5730 5727 5725 5722 5719 5716 5713 5710 5708 5705 5702
5770 5767 5765 5762 5760 5759 5757 5756 5754 5753 5752 5751 5750 5750 5749 5749 5749 5749 5747 5743 5734 5728 5730 5736 5739 5742 5741 5739 5737 5734 5732 5730 5727 5725 5722 5719 5716 5713 5710 5707 5704 5701 5699
5769 5767 5764 5763 5761 5759 5758 5756 5754 5754 5751 5750 5749 5748 5747 5747 5747 5747 5746 5744 5740 5733 5728 5734 5735 5737 5737 5735 5733 5731 5728 5727 5724 5721 5718 5716 5713 5709 5706 5703 5700 5697 5694
5768 5766 5764 5762 5760 5759 5757 5755 5753 5752 5750 5748 5747 5746 5744 5745 5743 5743 5742 5740 5738 5734 5728 5730 5733 5733 5731 5730 5728 5726 5724 5722 5719 5717 5714 5711 5708 5704 5701 5698 5695 5692 5689
5769 5766 5764 5761 5759 5758 5756 5753 5750 5750 5747 5745 5744 5743 5742 5742 5740 5739 5738 5737 5735 5733 5728 5724 5725 5725 5724 5724 5722 5720 5718 5716 5714 5712 5709 5705 5702 5699 5696 5693 5690 5686 5683
5768 5766 5763 5760 5757 5755 5753 5751 5749 5747 5745 5743 5742 5740 5739 5737 5735 5734 5733 5732 5731 5731 5728 5723 5721 5720 5719 5718 5715 5713 5712 5709 5707 5705 5702 5699 5696 5693 5689 5686 5683 5680 5677
5767 5764 5761 5758 5755 5753 5751 5748 5746 5744 5742 5741 5740 5738 5736 5734 5732 5731 5729 5728 5727 5724 5723 5720 5717 5715 5713 5711 5708 5705 5701 5700 5698 5697 5695 5692 5689 5686 5683 5680 5677 5674 5671
5767 5762 5758 5755 5752 5749 5746 5742 5741 5741 5738 5736 5736 5734 5732 5730 5728 5726 5725 5723 5721 5718 5716 5714 5710 5708 5706 5703 5700 5699 5695 5692 5691 5690 5687 5685 5682 5679 5676 5673 5671 5668 5665
5763 5759 5754 5751 5747 5744 5739 5737 5735 5735 5734 5732 5730 5728 5728 5725 5722 5720 5718 5717 5715 5712 5710 5707 5705 5702 5700 5699 5696 5693 5689 5685 5683 5684 5681 5678 5676 5673 5670 5667 5664 5662 5659
5759 5756 5751 5747 5742 5737 5734 5732 5730 5729 5729 5727 5724 5722 5722 5720 5717 5714 5712 5711 5709 5707 5705 5702 5699 5697 5695 5694 5690 5686 5683 5681 5678 5678 5674 5671 5669 5666 5664 5661 5658 5654 5651
5756 5752 5747 5744 5738 5732 5728 5726 5725 5725 5724 5722 5720 5717 5714 5712 5709 5707 5707 5705 5703 5701 5699 5697 5695 5694 5692 5689 5685 5682 5678 5675 5674 5672 5669 5664 5662 5659 5657 5653 5650 5647 5644
5751 5747 5743 5739 5734 5727 5723 5720 5718 5720 5718 5716 5714 5711 5708 5704 5701 5699 5699 5697 5695 5693 5691 5690 5689 5687 5684 5682 5678 5674 5671 5667 5664 5663 5663 5659 5656 5653 5649 5646 5643 5640 5636
5746 5742 5738 5734 5729 5723 5717 5714 5711 5713 5712 5710 5707 5704 5699 5697 5694 5691 5690 5689 5686 5685 5683 5682 5680 5679 5676 5674 5670 5667 5664 5660 5658 5656 5655 5652 5649 5645 5641 5639 5635 5631 5628